Tracking 25963 objects as of 12-Aug-2022
HD Live streaming from Space Station
objects crossing your sky now

GONETS D1 7

Track GONETS D1 7 now!
10-day predictions
GONETS D1 7 is classified as:


NORAD ID: 27058
Int'l Code: 2001-058D
Perigee: 1,419.9 km
Apogee: 1,423.5 km
Inclination: 82.5 °
Period: 114.1 minutes
Semi major axis: 7792 km
RCS: 0.883 m2 (medium)
Launch date: December 28, 2001
Source: Commonwealth of Independent States (former USSR) (CIS)
Launch site: PLESETSK MISSILE AND SPACE COMPLEX (PKMTR)
aabbcc
Your satellite tracking list
Your tracking list is empty




NASA's NSSDC Master Catalog

Two Line Element Set (TLE):
1 27058U 01058D   22223.67657719  .00000010  00000-0 -17866-5 0  9990
2 27058  82.5355  23.5225 0002329 310.5331  49.5557 12.62035856949985
Source of the keplerian elements: AFSPC